sat.trackr.live / text

‹ back to catalog

STARLINK-4282

NORAD 53019 · 2022-076AK

PAYLOAD ACTIVE UNKNOWN

§ Identity

Operator
Country
US
Launch date
2022-07-07
Launch site
AFETR
Launch vehicle
Mass (kg)
RCS (m²)

Purposes: comms

External: N2YO · Heavens-Above · Gunter

§ Orbital elements

Epoch: 2026-05-25T01:12:31.921344Z

Period
95.44 min
Inclination
53.2171°
Eccentricity
0.0001297
Mean motion
15.08856987 rev/d
Perigee alt
538.8 km
Apogee alt
540.6 km
Semi-major
6,917.8 km
B*
1.9476e-4
RAAN
101.3226°
Arg perigee
90.0141°
Mean anomaly
270.1000°
Rev number
21,451

§ Raw data

STARLINK-42821 53019U 22076AK  26145.05036946  .00002815  00000+0  19476-3 0  99912 53019  53.2171 101.3226 0001297  90.0141 270.1000 15.08856987214518

JSON: /api/v1/satellites/53019 · /tle

For live sub-satellite position, see the globe view (requires WebGL).

§ Visibility from observer

Set your observer location to see the next 7 days of passes ≥ 10°. The values pass through the URL so the page stays shareable.

No JS? Fill the form by hand. The geolocation button needs JavaScript.